CW9669 Weather Reports


Display with metric or nautical units.
time (UTC)temp
F
wind
direction
speed
MPH
gust
MPH
rain 1hr
in
rain 24hr
in
rain mn
in
humidity
%
barometer
mb
20260509022928 67 343 1.0 5.0 0.00 0.00 0.00 58 1019.1
20260509021931 67 313 2.0 6.0 0.00 0.00 0.00 56 1019.1
20260509020929 67 285 2.0 6.0 0.00 0.00 0.00 56 1019.0
20260509015928 68 300 2.0 5.0 0.00 0.00 0.00 55 1018.9
20260509014928 68 311 3.0 8.0 0.00 0.00 0.00 55 1018.9
20260509013928 68 322 3.0 8.0 0.00 0.00 0.00 53 1018.9
20260509012928 69 331 3.0 6.0 0.00 0.00 0.00 53 1019.0
20260509011930 69 329 3.0 8.0 0.00 0.00 0.00 51 1019.0
20260509010929 70 319 3.0 8.0 0.00 0.00 0.00 49 1019.0
20260509005931 70 345 2.0 6.0 0.00 0.00 0.00 51 1019.2
20260509004933 70 22 2.0 5.0 0.00 0.00 0.00 50 1019.2
20260509003933 70 304 3.0 6.0 0.00 0.00 0.00 51 1019.2
20260509002929 70 38 3.0 7.0 0.00 0.00 0.00 50 1019.2
20260509001929 70 350 2.0 8.0 0.00 0.00 0.00 51 1019.2
20260509000929 69 90 3.0 10.0 0.00 0.00 0.00 51 1019.1
20260508235929 70 67 3.0 9.0 0.00 0.00 0.00 49 1019.1
20260508235405 71 278 3.0 8.0 0.00 0.00 0.00 48 1019.1
20260508233927 70 310 2.0 9.0 0.00 0.00 0.00 48 1019.1
20260508232928 70 39 4.0 11.0 0.00 0.00 0.00 49 1019.1
20260508232403 70 296 3.0 8.0 0.00 0.00 0.00 49 1019.4
20260508230927 70 44 4.0 8.0 0.00 0.00 0.00 49 1019.3
20260508225927 69 300 3.0 10.0 0.00 0.00 0.00 50 1019.2
20260508224928 69 319 3.0 9.0 0.00 0.00 0.00 49 1019.2
20260508223928 69 298 4.0 12.0 0.00 0.00 0.00 48 1019.3
20260508222927 69 295 2.0 6.0 0.00 0.00 0.00 49 1019.4
20260508221928 68 41 2.0 5.0 0.00 0.00 0.00 50 1019.5
20260508221839 68 270 2.0 6.0 0.00 0.00 0.00 50 1019.6
20260508215928 68 15 3.0 9.0 0.00 0.00 0.00 50 1019.7
20260508214927 67 333 2.0 10.0 0.00 0.00 0.00 51 1019.9
20260508214404 67 302 1.0 5.0 0.00 0.00 0.00 50 1020.0
20260508212928 67 205 1.0 5.0 0.00 0.00 0.00 51 1020.0
20260508211928 66 309 1.0 4.0 0.00 0.00 0.00 52 1020.1
20260508210929 66 298 3.0 7.0 0.00 0.00 0.00 52 1020.2
20260508205927 65 344 2.0 8.0 0.00 0.00 0.00 52 1020.2
20260508204928 65 309 3.0 11.0 0.00 0.00 0.00 52 1020.4
20260508203928 65 286 2.0 7.0 0.00 0.00 0.00 52 1020.3
20260508202928 64 280 3.0 9.0 0.00 0.00 0.00 54 1020.4
20260508201927 64 317 1.0 4.0 0.00 0.00 0.00 54 1020.3
20260508201416 63 338 2.0 6.0 0.00 0.00 0.00 55 1020.5
20260508195931 64 306 1.0 4.0 0.00 0.00 0.00 55 1020.6
20260508194935 62 280 1.0 6.0 0.00 0.00 0.00 55 1020.6
20260508193930 62 296 1.0 8.0 0.00 0.00 0.00 58 1020.8
20260508192930 61 286 1.0 4.0 0.00 0.00 0.00 58 1020.9
20260508191929 62 338 1.0 4.0 0.00 0.00 0.00 58 1020.9
20260508190930 61 160 1.0 3.0 0.00 0.00 0.00 59 1020.9
20260508185928 60 211 1.0 4.0 0.00 0.00 0.00 61 1020.9
20260508184927 60 280 1.0 6.0 0.00 0.00 0.00 63 1020.9
20260508184408 59 335 1.0 8.0 0.00 0.00 0.00 62 1021.0
20260508182928 58 166 2.0 8.0 0.00 0.00 0.00 64 1021.1
20260508181929 57 279 2.0 5.0 0.00 0.00 0.00 67 1021.1
20260508180923 57 289 1.0 7.0 0.00 0.00 0.00 67 1021.3
20260508175923 56 346 1.0 6.0 0.00 0.00 0.00 69 1021.2
20260508174922 56 202 1.0 3.0 0.00 0.00 0.00 70 1021.2
20260508174406 55 293 1.0 4.0 0.00 0.00 0.00 72 1021.0
20260508172922 55 193 1.0 4.0 0.00 0.00 0.00 73 1021.0
20260508171922 54 317 1.0 2.0 0.00 0.00 0.00 75 1020.9
20260508170923 53 313 1.0 3.0 0.00 0.00 0.00 75 1020.7
20260508170410 53 166 0.0 2.0 0.00 0.00 0.00 77 1020.7
20260508165412 53 159 0.0 3.0 0.00 0.00 0.00 78 1020.6
20260508163921 52 266 0.0 2.0 0.00 0.00 0.00 78 1020.5
20260508162922 53 223 0.0 3.0 0.00 0.00 0.00 77 1020.4
20260508162854 52 89 0.0 3.0 0.00 0.00 0.00 79 1020.2
20260508160919 52 226 1.0 3.0 0.00 0.00 0.00 79 1020.3
20260508155917 52 126 1.0 3.0 0.00 0.00 0.00 78 1020.3
20260508154918 52 249 1.0 4.0 0.00 0.00 0.00 78 1020.3
20260508153918 51 246 0.0 2.0 0.00 0.00 0.00 79 1020.0
20260508152918 51 148 1.0 3.0 0.00 0.00 0.00 79 1020.4
20260508151917 51 142 1.0 2.0 0.00 0.00 0.00 78 1020.4
20260508150918 51 175 0.0 2.0 0.00 0.00 0.00 78 1020.3
20260508150420 51 138 0.0 2.0 0.00 0.00 0.00 77 1020.3
20260508145400 51 236 0.0 3.0 0.00 0.00 0.00 78 1020.5
20260508143915 50 197 1.0 4.0 0.00 0.00 0.00 80 1020.5
20260508143401 49 205 1.0 3.0 0.00 0.00 0.00 81 1020.6
20260508142355 49 217 0.0 3.0 0.00 0.00 0.00 82 1020.5
20260508140912 48 118 0.0 3.0 0.00 0.00 0.00 84 1020.3
20260508135912 48 181 0.0 2.0 0.00 0.00 0.00 85 1020.4
20260508134912 47 219 0.0 2.0 0.00 0.00 0.00 86 1020.2
20260508134352 47 53 0.0 0.0 0.00 0.00 0.00 86 1020.1
20260508132907 47 51 0.0 0.0 0.00 0.00 0.00 86 1020.1
20260508131906 47 351 0.0 1.0 0.00 0.00 0.00 87 1020.0
20260508130906 46 288 0.0 1.0 0.00 0.00 0.00 88 1019.9
20260508125905 46 172 0.0 2.0 0.00 0.00 0.00 88 1019.6
20260508124907 46 275 0.0 2.0 0.00 0.00 0.00 88 1019.5
20260508123906 46 161 0.0 1.0 0.00 0.00 0.00 88 1019.5
20260508122907 46 174 0.0 0.0 0.00 0.00 0.00 87 1019.2
20260508122343 47 174 0.0 1.0 0.00 0.00 0.00 87 1019.2
20260508120908 47 211 0.0 2.0 0.00 0.00 0.00 87 1019.1
20260508115902 47 123 0.0 1.0 0.00 0.00 0.00 87 1019.2
20260508114901 47 207 0.0 2.0 0.00 0.00 0.00 87 1019.1
20260508113905 47 292 0.0 2.0 0.00 0.00 0.00 86 1019.0
20260508113337 47 295 0.0 3.0 0.00 0.00 0.00 87 1019.0
20260508111901 47 323 0.0 2.0 0.00 0.00 0.00 86 1018.7
20260508111838 48 298 1.0 4.0 0.00 0.00 0.00 86 1018.5
20260508110345 48 305 1.0 3.0 0.00 0.00 0.00 86 1018.2
20260508104859 48 319 0.0 2.0 0.00 0.00 0.00 86 1018.1
20260508103900 48 327 0.0 2.0 0.00 0.00 0.00 86 1017.9
20260508102900 48 318 0.0 2.0 0.00 0.00 0.00 87 1017.9
20260508101857 48 317 0.0 0.0 0.00 0.00 0.00 87 1017.8
20260508100856 48 317 0.0 0.0 0.00 0.00 0.00 86 1017.7
20260508100333 49 317 0.0 1.0 0.00 0.00 0.00 86 1017.5
20260508094857 49 311 0.0 1.0 0.00 0.00 0.00 87 1017.3
20260508093855 49 139 0.0 0.0 0.00 0.00 0.00 86 1017.3
20260508093350 49 139 0.0 0.0 0.00 0.00 0.00 86 1017.3
20260508091855 50 139 0.0 1.0 0.00 0.00 0.00 86 1017.3
20260508090851 50 153 0.0 0.0 0.00 0.00 0.00 86 1017.0
20260508085853 51 153 0.0 0.0 0.00 0.00 0.00 85 1017.1
20260508084849 51 153 0.0 0.0 0.00 0.00 0.00 84 1017.0
20260508083848 51 153 0.0 0.0 0.00 0.00 0.00 84 1016.9
20260508082846 52 153 0.0 0.0 0.00 0.00 0.00 83 1016.8
20260508082337 52 153 0.0 0.0 0.00 0.00 0.00 82 1016.6
20260508080847 52 153 0.0 0.0 0.00 0.00 0.00 82 1016.6
20260508075846 52 153 0.0 0.0 0.00 0.00 0.00 81 1016.6
20260508074848 52 153 0.0 0.0 0.00 0.00 0.00 80 1016.6
20260508073847 53 153 0.0 0.0 0.00 0.00 0.00 78 1016.4
20260508072848 53 153 0.0 0.0 0.00 0.00 0.00 76 1016.4
20260508071845 54 153 0.0 0.0 0.00 0.00 0.00 75 1016.3
20260508071141 54 153 0.0 0.0 0.00 0.00 0.00 72 1016.1
20260508065847 55 153 0.0 0.0 0.00 0.00 0.00 69 1016.1
20260508064846 56 153 0.0 0.0 0.00 0.00 0.00 67 1016.1
20260508064325 57 153 0.0 0.0 0.00 0.00 0.00 65 1016.1
20260508062844 57 153 0.0 0.0 0.00 0.00 0.00 64 1016.1
20260508062315 57 153 0.0 0.0 0.00 0.00 0.00 63 1016.1
20260508060839 58 155 0.0 0.0 0.00 0.00 0.00 61 1016.1
20260508060318 58 154 0.0 0.0 0.00 0.00 0.00 59 1016.0
20260508054838 59 155 0.0 0.0 0.00 0.00 0.00 58 1016.0
20260508053841 60 325 0.0 0.0 0.00 0.00 0.00 58 1016.0
20260508053802 61 325 0.0 2.0 0.00 0.00 0.00 56 1016.0
20260508051837 62 299 1.0 6.0 0.00 0.00 0.00 55 1015.8
20260508050840 62 253 1.0 4.0 0.00 0.00 0.00 57 1015.9
20260508045837 63 292 1.0 5.0 0.00 0.00 0.00 58 1015.8
20260508044836 63 253 1.0 5.0 0.00 0.00 0.00 58 1015.6
20260508043837 64 311 1.0 4.0 0.00 0.00 0.00 58 1015.6
20260508042835 64 298 0.0 4.0 0.00 0.00 0.00 58 1015.4
20260508041836 65 298 1.0 3.0 0.00 0.00 0.00 59 1015.3
20260508040836 65 302 1.0 5.0 0.00 0.00 0.00 61 1015.1
20260508035835 65 322 0.0 1.0 0.00 0.00 0.00 64 1015.0
20260508035319 66 314 1.0 2.0 0.00 0.00 0.00 61 1014.8
20260508033836 65 291 0.0 2.0 0.00 0.00 0.00 62 1014.4
20260508032836 66 67 0.0 0.0 0.00 0.00 0.00 60 1014.2
20260508031834 67 67 0.0 0.0 0.00 0.00 0.00 57 1014.1
20260508031324 68 67 0.0 0.0 0.00 0.00 0.00 57 1014.0
20260508025838 69 67 0.0 0.0 0.00 0.00 0.00 52 1014.0
20260508024833 70 67 0.0 0.0 0.00 0.00 0.00 50 1014.0
20260508023834 71 67 0.0 0.0 0.00 0.00 0.00 48 1014.0